Racecast

MHSAA LP Division 1 Finals

Michigan International Speedway (MIS) · 5000m · Girls · Compiled · MI

249 runners from 1 division

These divisions were run separately. This is how their times compare, not how they finished — the places and scores below were never contested.

View full meet →

Team scores

Place Team Points 12345 67
1 Ann Arbor Pioneer (MI) 96 1 7 11 12 65 67 103
2 Romeo (MI) 103 3 5 9 39 47 132 159
3 Brighton (MI) 225 16 26 46 48 89 131
4 Northville (MI) 227 6 34 51 58 78 90 141
5 Ann Arbor Skyline (MI) 249 20 28 45 50 106 111 121
6 Hudsonville (MI) 268 15 36 38 61 118 150 162
7 TC West (Traverse City) (MI) 274 18 37 44 68 107 114 139
8 Holland West Ottawa (MI) 280 25 42 49 77 87 120 158
9 Hartland (MI) 302 19 52 62 75 94 97 136
10 Saline (MI) 309 14 31 57 64 143 144 165
11 Jenison (MI) 333 30 56 72 82 93 104 172
12 Portage Central (MI) 340 21 60 74 83 102 119 126
13 Rockford (MI) 350 17 27 84 99 123 142 173
14 Rochester Adams (MI) 353 4 29 53 116 151 154 166
15 Okemos (MI) 364 2 13 88 115 146 147 156
16 Novi (MI) 372 23 59 80 85 125 133 171
17 Rochester (MI) 382 22 24 66 95 175 180
18 TC Central (Traverse City) (MI) 383 41 70 76 79 117 124 149
19 White Lake Lakeland (MI) 431 43 55 101 105 127 134 135
20 Woodhaven Brownstown (MI) 441 10 96 98 109 128 153 174
21 Clarkston (MI) 449 69 71 81 91 137 145 164
22 Utica (MI) 498 35 73 122 130 138 170 178
23 Macomb Dakota (MI) 510 32 63 110 148 157 160 176
24 Livonia Churchill (MI) 540 40 100 108 129 163 186 187
25 Zeeland East (MI) 556 8 92 140 155 161 169 179
26 Salem (MI) 614 54 112 113 167 168 181 182
27 Ann Arbor Huron (MI) 631 33 86 152 177 183 184 185

Not scored, fewer than five finishers: Holly (2), FHC GR Forest Hills Central (2), Rochester Hills Stoney Creek (2), Portage Northern (2), Bay City Western (2), Temperance Bedford (2), Utica Eisenhower (2), Wyandotte Roosevelt (2), Farmington (2), Zeeland West (2), Plymouth (2), FHN GR Forest Hills Northern (2), Mason (2), Howell (2), Fraser (2), Dexter (2), Gibraltar Carlson (2), Lake Orion (2), Canton (2), Midland Dow (1), Beverly Hills Groves (1), Greenville (1), Birmingham Seaholm (1), Berkley (1), Grand Ledge (1), Midland (1), Troy (1), East Kentwood (1), GR Ottawa Hills (1), Grand Haven (1), Port Huron Northern (1), Bloomfield Hills (1), GR Northview (1), Highland-Milford (1), Oxford (1), Muskegon Reeths-Puffer (1), Utica Ford (1), Dearborn Heights Crestwood (1), Livonia Stevenson (1), Macomb L'Anse Creuse North (1), Dearborn Fordson (1), Grosse Pointe South (1), Oak Park (1)

Results

Place Athlete Grade School Time Rating Points Actual race
1 Natasza Dudek 10 Ann Arbor Pioneer (MI) 1 16:09.5 150.5 1 1
2 Rachel Smith 10 Okemos (MI) 1 17:04.7 142.4 2 2
3 Annie Hrabovsky 11 Romeo (MI) 1 17:22.1 140.0 3 3
4 Emilia Garces 10 Midland Dow (MI) 1 17:23.3 139.9 4
5 El McMahan 11 Rochester Adams (MI) 1 17:24.3 139.7 4 5
6 Ella Goodsell 12 Romeo (MI) 2 17:29.3 139.1 5 6
7 Alexandra Scappaticci 9 Northville (MI) 1 17:30.9 138.8 6 7
8 Sienna Klemmer 10 Ann Arbor Pioneer (MI) 2 17:38.8 137.8 7 8
9 Adalyn Raab 10 Zeeland East (MI) 1 17:42.0 137.4 8 9
10 Natalia Guaresimo 12 Romeo (MI) 3 17:47.6 136.7 9 10
11 Charley McKay 10 Woodhaven Brownstown (MI) 1 17:51.8 136.1 10 11
12 Maddie Lindley 11 Holly (MI) 1 17:52.9 136.0 12
13 Hana Boggess 12 Ann Arbor Pioneer (MI) 3 17:56.9 135.5 11 13
14 Keira Von Blon 9 Ann Arbor Pioneer (MI) 4 17:57.2 135.4 12 14
15 October Harns 12 Okemos (MI) 2 17:57.3 135.4 13 15
16 Savannah Staton 10 Saline (MI) 1 17:57.6 135.4 14 16
17 Grace Snyder 9 Hudsonville (MI) 1 17:57.8 135.4 15 17
18 Lydia LaMarra 12 Brighton (MI) 1 17:58.3 135.3 16 18
19 Lilah Yoder 12 FHC GR Forest Hills Central (MI) 1 17:58.4 135.3 19
20 Daisy Cox 11 Rockford (MI) 1 17:59.1 135.2 17 20
21 Tessa Mascari 11 TC West (Traverse City) (MI) 1 18:00.1 135.1 18 21
22 Elliana Neuer 12 Hartland (MI) 1 18:02.8 134.8 19 22
23 Giada Mills 9 Beverly Hills Groves (MI) 1 18:03.9 134.6 23
24 Leah Corby 12 Rochester Hills Stoney Creek (MI) 1 18:04.0 134.6 24
25 Lucia Llanes 10 Ann Arbor Skyline (MI) 1 18:05.4 134.4 20 25
26 Gracie Carlisle 10 Portage Central (MI) 1 18:08.9 134.0 21 26
27 Ella Abraham 12 Rochester (MI) 1 18:09.4 133.9 22 27
28 Ainsley Kelm 10 Portage Northern (MI) 1 18:11.2 133.7 28
29 Katelynn Egli 11 Novi (MI) 1 18:12.7 133.5 23 29
30 Charlotte Jones 10 Rochester (MI) 2 18:12.8 133.5 24 30
31 Collette Wierks 11 Holland West Ottawa (MI) 1 18:22.8 132.3 25 31
32 Julia Bambach 10 Holly (MI) 2 18:23.3 132.2 32
33 Gracelin Martin 12 Greenville (MI) 1 18:24.7 132.1 33
34 Juliet Lewis 12 Brighton (MI) 2 18:24.8 132.1 26 34
35 Morgan Sanders 10 Rockford (MI) 2 18:25.9 131.9 27 35
36 Alexandra Green 10 Birmingham Seaholm (MI) 1 18:30.0 131.4 36
37 Becca Van Lent 11 Ann Arbor Skyline (MI) 2 18:31.1 131.3 28 37
38 Jessica Soldan 9 Rochester Adams (MI) 2 18:31.5 131.3 29 38
39 Paige McMeans 11 Jenison (MI) 1 18:33.4 131.1 30 39
40 Grace Meyers 9 Bay City Western (MI) 1 18:35.6 130.8 40
41 Lillian (Lilli) Schlack 12 Saline (MI) 2 18:35.7 130.8 31 41
42 Gabriella Mercier 10 Macomb Dakota (MI) 1 18:35.9 130.8 32 42
43 Maribelle Kofahl 9 Ann Arbor Huron (MI) 1 18:37.1 130.6 33 43
44 Colette Lozo 11 Northville (MI) 2 18:37.5 130.6 34 44
45 Siene Muraszewski 12 Utica (MI) 1 18:37.7 130.5 35 45
46 Audrey Grosteffon 9 Temperance Bedford (MI) 1 18:40.4 130.2 46
47 Cassie Karasinski 11 Hudsonville (MI) 2 18:40.5 130.2 36 47
48 Payton Lamb 12 TC West (Traverse City) (MI) 2 18:40.6 130.2 37 48
49 Chloe Purwin 11 Hudsonville (MI) 3 18:41.3 130.1 38 49
50 Jacalyn Yakel 12 Utica Eisenhower (MI) 1 18:42.1 130.0 50
51 Paige Rohda 10 Berkley (MI) 1 18:42.3 130.0 51
52 Aviana Skinner 12 Grand Ledge (MI) 1 18:43.0 129.9 52
53 Emmerson (Emmie) Clor 12 Romeo (MI) 4 18:43.3 129.9 39 53
54 Rianna Radulescu 12 Livonia Churchill (MI) 1 18:43.8 129.8 40 54
55 Cecelia Jacobson 9 TC Central (Traverse City) (MI) 1 18:44.5 129.8 41 55
56 Olivia Stacy 12 Portage Northern (MI) 2 18:45.8 129.6 56
57 Kaitlyn Berg 9 Midland (MI) 1 18:46.7 129.5 57
58 Lyla Dowling 11 Holland West Ottawa (MI) 2 18:47.0 129.5 42 58
59 Audrey Hamilton 12 Troy (MI) 1 18:47.4 129.4 59
60 Ava Lawrence 12 East Kentwood (MI) 1 18:47.7 129.4 60
61 Maya Pletzer 11 White Lake Lakeland (MI) 1 18:48.6 129.3 43 61
62 Abby Veit 12 TC West (Traverse City) (MI) 3 18:48.8 129.3 44 62
63 Isla Tharp 11 Ann Arbor Skyline (MI) 3 18:49.1 129.2 45 63
64 Courtney Lince 12 Brighton (MI) 3 18:49.9 129.1 46 64
65 Reese Rosbolt 11 Romeo (MI) 5 18:50.4 129.1 47 65
66 Selena White 12 Brighton (MI) 4 18:51.3 129.0 48 66
67 Eleanor Grant 12 Wyandotte Roosevelt (MI) 1 18:52.8 128.8 67
68 Kierra Magner 12 Farmington (MO) 1 18:52.9 128.8 68
69 Mary Dolbow 10 Holland West Ottawa (MI) 3 18:53.3 128.8 49 69
70 Madeleine Hengeveld 11 GR Ottawa Hills (MI) 1 18:53.6 128.7 70
71 Lila Edison 10 Ann Arbor Skyline (MI) 4 18:54.8 128.6 50 71
72 Annabelle Beloiu 12 Northville (MI) 3 18:55.4 128.5 51 72
73 Caralyn Elkins 10 Zeeland West (MI) 1 18:56.0 128.4 73
74 Sophia Nunnery 12 Hartland (MI) 2 18:56.5 128.4 52 74
75 Abby Deering 9 Rochester Adams (MI) 3 18:56.8 128.4 53 75
76 Katelyn Parrish 11 Farmington (MO) 2 18:57.0 128.3 76
77 Becca Jud 12 Salem (MI) 1 18:57.1 128.3 54 77
78 Morgan Scally 11 White Lake Lakeland (MI) 2 18:57.7 128.2 55 78
79 Cianah Budnik-Ramos 12 Grand Haven (MI) 1 18:57.7 128.2 79
80 Macy Guikema 12 Jenison (MI) 2 18:58.4 128.2 56 80
81 Katarina Munson 11 Saline (MI) 3 18:59.9 128.0 57 81
82 Brynn Somers 9 Northville (MI) 4 19:00.4 127.9 58 82
83 Claire Galas 10 Novi (MI) 2 19:00.5 127.9 59 83
84 Avery Scott 10 Portage Central (MI) 2 19:00.8 127.9 60 84
85 Lexie Snyder 9 Hudsonville (MI) 4 19:01.3 127.8 61 85
86 Ava Goodman 11 Hartland (MI) 3 19:01.8 127.8 62 86
87 Lidia Clancy 12 Macomb Dakota (MI) 2 19:03.4 127.6 63 87
88 Adelynn Turck 10 Saline (MI) 4 19:03.9 127.6 64 88
89 Mackenzie Dicken 12 Plymouth (MI) 1 19:04.0 127.5 89
90 Lizzie Wernimont 11 Ann Arbor Pioneer (MI) 5 19:04.2 127.5 65 90
91 Taylor Parsons 12 Rochester (MI) 3 19:05.6 127.4 66 91
92 Samantha Langolf 12 Port Huron Northern (MI) 1 19:06.3 127.3 92
93 Claire Lawrence 9 Bloomfield Hills (MI) 1 19:06.3 127.3 93
94 Nina Moore 11 Ann Arbor Pioneer (MI) 6 19:08.2 127.1 67 94
95 Peyton Tucker 12 TC West (Traverse City) (MI) 4 19:08.4 127.1 68 95
96 Annabelle Shaw 9 Clarkston (MI) 1 19:08.9 127.0 69 96
97 Emily Truszkowski 10 TC Central (Traverse City) (MI) 2 19:09.0 127.0 70 97
98 Avery DeGrendel 11 Clarkston (MI) 2 19:09.5 126.9 71 98
99 Jaclyn Charbauski 10 FHN GR Forest Hills Northern (MI) 1 19:10.1 126.9 99
100 Jorga Wooledge 10 Mason (OH) 1 19:10.4 126.8 100
101 Ruby Petee 10 Mason (OH) 2 19:10.5 126.8 101
102 Mackenzie VanStensel 10 GR Northview (MI) 1 19:11.5 126.7 102
103 Maddy Aleisa 10 Jenison (MI) 3 19:11.7 126.7 72 103
104 Jillian Broyles 11 Highland-Milford (MI) 1 19:11.9 126.7 104
105 Brooke Wallace 9 Howell (NJ) 1 19:12.9 126.6 105
106 Kylie Brown 10 Utica (MI) 2 19:14.6 126.4 73 106
107 Julia Welc 10 Portage Central (MI) 3 19:15.8 126.2 74 107
108 Brielle Bastionell 9 Hartland (MI) 4 19:16.0 126.2 75 108
109 Sienna Cobb 12 TC Central (Traverse City) (MI) 3 19:16.1 126.2 76 109
110 Ava Porras 12 Holland West Ottawa (MI) 4 19:16.4 126.2 77 110
111 Ella Corby 9 Northville (MI) 5 19:17.5 126.1 78 111
112 Kelly Comfort 10 TC Central (Traverse City) (MI) 4 19:20.1 125.8 79 112
113 Ella German 9 Novi (MI) 3 19:22.2 125.5 80 113
114 Sydney Fischer 12 Clarkston (MI) 3 19:22.2 125.5 81 114
115 Alice Foley 11 Fraser (MI) 1 19:23.3 125.4 115
116 Mackenzie Conner 12 Jenison (MI) 4 19:23.3 125.4 82 116
117 Evelyn Moon 10 Portage Central (MI) 4 19:23.7 125.4 83 117
118 Rae DeFrang 11 Rockford (MI) 3 19:24.5 125.3 84 118
119 Mya Tass 12 Novi (MI) 4 19:25.7 125.2 85 119
120 Mira Shelgikar 10 Ann Arbor Huron (MI) 2 19:28.2 124.9 86 120
121 Amelia Cribbins 12 Dexter (MI) 1 19:29.0 124.8 121
122 Delilah Marquez 11 Holland West Ottawa (MI) 5 19:29.4 124.8 87 122
123 Elizabeth Schafer 12 Okemos (MI) 3 19:30.0 124.7 88 123
124 Annie Hamilton 12 Brighton (MI) 5 19:30.1 124.7 89 124
125 Lucia Lachapelle 11 Northville (MI) 6 19:30.9 124.6 90 125
126 Anna Halliday 11 Howell (NJ) 2 19:31.3 124.6 126
127 Amelia Garvin 10 Clarkston (MI) 4 19:32.8 124.4 91 127
128 Taryn DiLaura 12 Zeeland East (MI) 2 19:33.0 124.4 92 128
129 Maggie Baginski 11 Utica Eisenhower (MI) 2 19:35.1 124.2 129
130 Emma Storey 9 Jenison (MI) 5 19:38.1 123.8 93 130
131 Madison Slade 9 Gibraltar Carlson (MI) 1 19:38.2 123.8 131
132 Linda Lopez 11 Lake Orion (MI) 1 19:38.4 123.8 132
133 Lila Miller 9 Hartland (MI) 5 19:38.6 123.8 94 133
134 Maren Greve 10 Rochester (MI) 4 19:39.1 123.8 95 134
135 Hope Noal 11 Woodhaven Brownstown (MI) 2 19:39.3 123.7 96 135
136 Ruby Hoffmann 9 Hartland (MI) 6 19:39.4 123.7 97 136
137 Jaelynn Greene 10 Woodhaven Brownstown (MI) 3 19:39.8 123.7 98 137
138 Natalie Meldrum 11 Lake Orion (MI) 2 19:40.4 123.6 138
139 Jillian Lewakowski 10 Rockford (MI) 4 19:40.5 123.6 99 139
140 Rachael Halkey 12 Livonia Churchill (MI) 2 19:41.0 123.6 100 140
141 Gabby Marino 11 White Lake Lakeland (MI) 3 19:41.2 123.5 101 141
142 Rhea Mouw 12 Portage Central (MI) 5 19:41.9 123.4 102 142
143 Laura Forsyth 9 Ann Arbor Pioneer (MI) 7 19:42.3 123.4 103 143
144 Tessa Albrecht 9 Zeeland West (MI) 2 19:42.4 123.4 144
145 Andrea Schwartz 12 Jenison (MI) 6 19:42.6 123.4 104 145
146 Isabelle Verellen 11 White Lake Lakeland (MI) 4 19:43.1 123.3 105 146
147 Adrienne Stewart 12 Ann Arbor Skyline (MI) 5 19:45.0 123.1 106 147
148 Reese Smith 12 TC West (Traverse City) (MI) 5 19:45.3 123.1 107 148
149 Julie Schuessler 11 Livonia Churchill (MI) 3 19:45.9 123.0 108 149
150 Jaclyn Suderman 11 Bay City Western (MI) 2 19:46.2 123.0 150
151 Alexis Kmiecik 10 Woodhaven Brownstown (MI) 4 19:46.5 123.0 109 151
152 Grace Mathers 9 Macomb Dakota (MI) 3 19:47.0 122.9 110 152
153 Olivia Cereska 12 Fraser (MI) 2 19:47.1 122.9 153
154 Gwen Stotts-Walshe 11 Ann Arbor Skyline (MI) 6 19:48.4 122.8 111 154
155 Ella Hanner 9 Salem (MI) 2 19:49.9 122.6 112 155
156 Samantha Bartell 11 Salem (MI) 3 19:50.2 122.6 113 156
157 Leighton Basile 10 TC West (Traverse City) (MI) 6 19:51.3 122.5 114 157
158 Gabriella Fugazzi 11 Okemos (MI) 4 19:51.7 122.4 115 158
159 Cecilia Kreiter 12 Rochester Adams (MI) 4 19:51.7 122.4 116 159
160 Hailey Sieler 9 FHC GR Forest Hills Central (MI) 2 19:52.7 122.3 160
161 Ariana Rajah 10 TC Central (Traverse City) (MI) 5 19:52.8 122.3 117 161
162 Ashley Wayne 11 Hudsonville (MI) 5 19:53.7 122.2 118 162
163 Claire Mouw 10 Portage Central (MI) 6 19:55.9 122.0 119 163
164 Ella Wierks 11 Holland West Ottawa (MI) 6 19:56.1 122.0 120 164
165 Giada Fioritto 10 Gibraltar Carlson (MI) 2 19:57.4 121.8 165
166 Willa Prinsen 12 FHN GR Forest Hills Northern (MI) 2 19:58.6 121.7 166
167 Violet Olley 10 Ann Arbor Skyline (MI) 7 19:59.6 121.6 121 167
168 Sienna Chapin 10 Oxford (MI) 1 20:00.3 121.6 168
169 Codianne Palczewski 10 Utica (MI) 3 20:00.5 121.5 122 169
170 Alyssa Mertes 12 Rockford (MI) 5 20:01.4 121.4 123 170
171 Gretchen Oyer 9 TC Central (Traverse City) (MI) 6 20:02.0 121.4 124 171
172 Jessica Philip 9 Novi (MI) 5 20:02.7 121.3 125 172
173 Maddie Guy 9 Portage Central (MI) 7 20:03.3 121.3 126 173
174 Olivia Mustonen 9 White Lake Lakeland (MI) 5 20:03.5 121.2 127 174
175 Annabelle Chan 10 Woodhaven Brownstown (MI) 5 20:03.8 121.2 128 175
176 Madelene (Maddie) Vargo 10 Livonia Churchill (MI) 4 20:05.4 121.0 129 176
177 Sophia Johnson 11 Temperance Bedford (MI) 2 20:06.4 120.9 177
178 Brooke McFarland 12 Utica (MI) 4 20:06.6 120.9 130 178
179 Ashley Lubowicki 11 Brighton (MI) 6 20:10.8 120.5 131 179
180 Jersi Bilek 12 Muskegon Reeths-Puffer (MI) 1 20:11.6 120.4 180
181 Natalie Vert 10 Romeo (MI) 6 20:11.9 120.4 132 181
182 Sora Saito 9 Novi (MI) 6 20:12.0 120.4 133 182
183 Jenna Sievert 11 White Lake Lakeland (MI) 6 20:12.5 120.3 134 183
184 Clare Davidson 10 Canton (MI) 1 20:13.4 120.2 184
185 Genevieve Connolly 11 White Lake Lakeland (MI) 7 20:13.5 120.2 135 185
186 Gabrielle Desgrange 9 Hartland (MI) 7 20:13.7 120.2 136 186
187 Kendal Russette 11 Clarkston (MI) 5 20:14.8 120.1 137 187
188 Kodie Snyder 11 Dexter (MI) 2 20:14.9 120.1 188
189 Emma Brown 11 Utica (MI) 5 20:15.6 120.0 138 189
190 Bailey Wenzlick 12 TC West (Traverse City) (MI) 7 20:17.9 119.8 139 190
191 Meredith Cook 12 Zeeland East (MI) 3 20:18.7 119.7 140 191
192 Tatum Mooradian 10 Northville (MI) 7 20:20.6 119.5 141 192
193 Reese DeFrang 11 Rockford (MI) 6 20:21.3 119.5 142 193
194 Lauren Tomaszewski 9 Saline (MI) 5 20:21.3 119.5 143 194
195 Caroline Cotner 9 Saline (MI) 6 20:25.0 119.1 144 195
196 Mia Fernandez 12 Canton (MI) 2 20:25.7 119.0 196
197 Addison Brigham 11 Clarkston (MI) 6 20:27.6 118.9 145 197
198 Mya Bower 10 Okemos (MI) 5 20:29.0 118.7 146 198
199 Fiona Whitmyer 12 Okemos (MI) 6 20:29.8 118.6 147 199
200 Tessa Kozlowski 11 Rochester Hills Stoney Creek (MI) 2 20:30.6 118.6 200
201 Chloe Muirhead 9 Macomb Dakota (MI) 4 20:31.5 118.5 148 201
202 Lillian Shev 12 TC Central (Traverse City) (MI) 7 20:32.3 118.4 149 202
203 Sidney Eaton 9 Hudsonville (MI) 6 20:32.7 118.4 150 203
204 Ava Thomas 10 Rochester Adams (MI) 5 20:32.7 118.4 151 204
205 Sadie Bohnsack 10 Ann Arbor Huron (MI) 3 20:33.2 118.3 152 205
206 Elliana Perugi 12 Woodhaven Brownstown (MI) 6 20:33.5 118.3 153 206
207 Gianna D'Angelo 12 Utica Ford (MI) 1 20:35.6 118.1 207
208 Maddie Deering 9 Rochester Adams (MI) 6 20:36.4 118.0 154 208
209 Megan Kuzma 12 Zeeland East (MI) 4 20:36.7 118.0 155 209
210 Piper Williams 12 Okemos (MI) 7 20:37.5 117.9 156 210
211 Kaitlyn Rizzo 11 Macomb Dakota (MI) 5 20:38.5 117.8 157 211
212 Chloe Powers 10 Holland West Ottawa (MI) 7 20:44.2 117.3 158 212
213 Lydia Scally 11 Romeo (MI) 7 20:46.4 117.1 159 213
214 Evelyn Clancy 9 Macomb Dakota (MI) 6 20:50.5 116.7 160 214
215 Emily Graves 12 Zeeland East (MI) 5 20:51.2 116.6 161 215
216 Sarah Wazne 12 Dearborn Heights Crestwood (MI) 1 20:51.3 116.6 216
217 Michaela Pries 9 Hudsonville (MI) 7 20:52.5 116.5 162 217
218 Natalie Workman 12 Livonia Churchill (MI) 5 20:52.6 116.5 163 218
219 Emma Puscas 9 Wyandotte Roosevelt (MI) 2 20:54.1 116.3 219
220 Lucy Dubeck 10 Clarkston (MI) 7 20:57.3 116.1 164 220
221 Jillian Hayes 12 Saline (MI) 7 20:59.2 115.9 165 221
222 Claire Milne 10 Rochester Adams (MI) 7 21:00.1 115.8 166 222
223 Isabella Rushlow 11 Plymouth (MI) 2 21:00.4 115.8 223
224 Margo Kaledas 12 Salem (MI) 4 21:03.1 115.5 167 224
225 Addie Jones 11 Salem (MI) 5 21:06.2 115.2 168 225
226 Tenley DeWitt 9 Zeeland East (MI) 6 21:10.3 114.9 169 226
227 Laela D'John 9 Utica (MI) 6 21:11.6 114.7 170 227
228 Khaya Pierson 9 Livonia Stevenson (MI) 1 21:12.4 114.7 228
229 Laura Jonas 12 Novi (MI) 7 21:14.5 114.5 171 229
230 Maggie Wagner 11 Jenison (MI) 7 21:14.7 114.5 172 230
231 Claire Watson 10 Rockford (MI) 7 21:14.7 114.5 173 231
232 Ava Knight 10 Macomb L'Anse Creuse North (MI) 1 21:19.3 114.1 232
233 Serenity Clancy 9 Woodhaven Brownstown (MI) 7 21:22.9 113.7 174 233
234 Annie Roraff 11 Rochester (MI) 5 21:24.8 113.6 175 234
235 Layla Gendernelle 10 Macomb Dakota (MI) 7 21:27.9 113.3 176 235
236 Abigail Avram 9 Ann Arbor Huron (MI) 4 21:28.2 113.3 177 236
237 Ava Tow 12 Utica (MI) 7 21:29.1 113.2 178 237
238 Libby Post 12 Zeeland East (MI) 7 21:30.8 113.0 179 238
239 Maya Elachkar 11 Dearborn Fordson (MI) 1 21:46.4 111.7 239
240 Lily Limberg 12 Rochester (MI) 6 22:00.1 110.5 180 240
241 Sarah Gumber 12 Salem (MI) 6 22:01.9 110.4 181 241
242 Madelynne Stamp 10 Salem (MI) 7 22:08.8 109.8 182 242
243 Sylvia Irwin 11 Ann Arbor Huron (MI) 5 22:11.4 109.6 183 243
244 Eleanor Pilsner 9 Grosse Pointe South (MI) 1 22:12.4 109.5 244
245 Harper Pinto 11 Ann Arbor Huron (MI) 6 22:12.7 109.5 184 245
246 Leah Thomas 11 Oak Park (CA) 1 22:13.9 109.4 246
247 Tamsin Aherne 12 Ann Arbor Huron (MI) 7 22:15.8 109.2 185 247
248 Alyssa Gershon 12 Livonia Churchill (MI) 6 22:51.7 106.4 186 248
249 Cecilia Hernandez 9 Livonia Churchill (MI) 7 22:51.8 106.4 187 249